Weather in Gornyy Zerentuy

Russia / Zabaykalsky Krai     51°12′47″N   119°31′15″E
temp.,
°C
wind,
m/s
gust,
m/s
humid.,
%
clouds,
%
prec.,
mm/h
press.,
hPa
HPBL,
m
12 may, wed
wed1200:00+6ne71193100 15.6 996943
03:00+6nne81193100 20.6 995916
06:00+5nnw51194100 5.2 996799
09:00+4nnw71296100 6.0 998563
12:00+3nnw71396100 3.6 1000672
15:00+4nnw81396100 6.7 1002773
18:00+5nnw61388100 0.6 1003791
21:00+4nnw228899 0.7 100524
13 may, thu
thu1300:00+2wnw118985 0.0 100610
03:00+1wnw11880 0.0 100710
06:00+1nnw11860 0.0 100810
09:00+7sw22668 0.0 1007441
12:00+12w58465 0.0 10061826
15:00+14w693486 0.0 10042369
18:00+10nw5557100 0.0 1005618
21:00+8sw1167100 0.1 100514
14 may, fri
fri1400:00+3nnw4596100 6.3 1005402
03:00+1nw411100100 16.6 1005516
06:00+2wsw229863 0.4 100550
09:00+3wsw349350 0.4 1005424
12:00+8nw577198 0.1 10041306
15:00+9nw686380 0.5 10041629
18:00+9wnw68605 0.2 10041382
21:00+5wnw34775 0.2 100660
15 may, sat
sat1500:00+3w358229 0.0 1007103
03:00+3wnw4117819 0.0 1007286
06:00+4wnw513735 0.0 1007405
09:00+8nw610550 0.0 1008914
12:00+13nw79425 0.0 10071592
15:00+15wnw68335 0.0 10062291
18:00+15wnw47340 0.0 10062098
21:00+10sw22470 0.0 100612
16 may, sun
sun1600:00+8sw22522 0.0 100612
03:00+6wsw22596 0.0 100611
06:00+5wsw2259100 0.0 100613
09:00+10wnw811475 0.0 10051093
12:00+13wnw81138100 0.0 10032462
15:00+15wnw9132796 0.0 10023292
18:00+15wnw913303 0.0 10022980
21:00+10nw410345 0.0 1004163